CAPE
0 0 0 0 0 0 0 0 0 0 0 0 0 0 0 0 0 0 0 0 0 0 0 0 0 0 7 3 0 4 6 0 0 0 0 0 0 0 0 0 0 0 0
0 0 0 0 0 0 0 0 0 0 0 0 0 0 0 0 0 0 0 0 0 0 0 0 0 0 0 2 3 5 6 7 4 7 2 0 0 0 0 0 0 0 0
0 0 0 0 0 0 0 0 0 0 0 0 0 0 0 0 0 0 0 0 0 0 0 0 0 0 0 3 4 2 6 13 2 3 14 18 14 2 19 0 0 0 0
0 0 0 0 0 0 0 0 0 0 0 0 0 0 0 0 0 0 0 0 0 0 0 0 0 0 0 0 0 7 1 13 11 4 9 10 15 26 6 0 1 0 0
0 0 0 0 0 0 0 0 0 0 0 0 0 0 0 0 0 0 0 0 0 0 0 0 0 0 0 0 0 0 0 15 16 16 13 7 11 20 10 8 3 0 0
0 0 0 0 0 0 0 0 0 0 0 0 0 0 0 0 0 0 0 0 0 0 0 0 0 0 0 0 0 0 0 0 6 14 15 27 18 15 24 17 4 5 2
0 0 0 0 0 0 0 0 0 0 0 0 0 0 0 0 0 0 0 0 0 0 0 0 0 0 0 0 0 0 0 0 2 7 3 24 14 32 33 23 14 23 9
0 0 0 0 0 0 0 0 0 0 0 0 0 0 0 0 0 0 0 0 0 0 0 0 0 0 0 0 0 0 0 0 1 2 0 8 12 18 27 28 25 19 14
0 0 0 0 0 0 0 0 0 0 0 0 0 0 0 0 0 0 0 0 0 0 0 0 0 0 0 0 1 4 0 2 5 3 4 2 0 4 6 11 31 38 26
0 0 0 0 0 0 0 0 0 0 0 0 0 0 0 0 0 0 0 0 0 0 0 0 0 0 0 0 0 0 2 6 3 1 2 0 1 2 5 12 16 21 36
0 0 0 0 0 0 0 0 0 0 0 0 0 0 0 0 0 0 0 0 0 0 0 0 0 0 0 0 0 3 3 3 0 3 5 3 0 0 1 5 12 18 46
0 0 0 0 0 0 0 0 0 0 0 0 0 0 0 0 0 0 0 0 0 0 0 0 0 0 0 0 2 3 6 3 3 2 5 8 2 2 6 3 6 27 10
0 0 0 0 0 0 0 0 0 0 0 0 0 0 0 0 0 0 0 0 0 0 0 0 0 0 0 0 5 7 5 3 3 3 5 12 15 12 12 0 7 22 38
0 0 0 0 0 0 0 0 0 0 0 0 0 0 0 0 0 0 0 0 0 0 0 0 0 0 0 1 10 5 1 2 1 4 6 11 21 21 22 24 23 38 14
0 0 0 0 0 0 0 0 0 0 0 0 0 0 0 0 0 0 0 0 0 0 0 0 0 0 0 5 7 8 3 1 1 2 4 6 15 25 14 30 25 34 13
0 0 0 0 0 0 0 0 0 0 0 0 0 0 0 0 0 0 0 0 0 0 0 1 1 1 1 3 6 8 4 7 8 8 0 0 11 15 4 3 7 2 18
0 0 0 0 0 0 0 0 0 0 0 0 0 0 0 0 0 0 0 0 0 0 0 0 0 0 1 2 7 8 5 1 2 4 9 10 13 10 14 7 4 7 5
0 0 0 0 0 0 0 0 0 0 0 0 0 0 0 0 0 0 0 0 0 0 0 0 0 0 0 3 3 5 3 5 5 6 8 9 13 13 17 14 9 9 14
0 0 0 0 0 0 0 0 0 0 0 0 0 0 0 0 0 0 0 0 0 0 0 0 0 0 0 5 7 7 7 6 5 7 8 11 11 10 13 8 8 3 2
0 0 0 0 0 0 0 0 0 0 0 0 0 0 0 0 0 0 0 0 0 0 0 0 0 1 1 1 3 10 7 6 5 3 4 5 8 8 4 5 7 2 1
0 0 0 0 0 0 0 0 0 0 0 0 0 0 0 0 0 0 0 0 0 0 0 0 0 0 1 1 9 9 3 4 0 3 2 1 7 4 9 9 5 2 0
0 0 0 0 0 0 0 0 0 0 0 0 0 0 0 0 0 0 0 0 0 0 0 0 0 0 0 1 5 7 4 2 4 2 1 1 9 6 6 2 1 0 0
0 0 0 0 0 0 0 0 0 0 0 0 0 0 0 0 0 0 0 0 0 0 0 0 1 1 0 0 6 4 1 1 0 0 0 2 2 0 0 0 1 0 1
0 0 0 0 0 0 0 0 0 0 0 0 0 0 0 0 0 0 0 0 0 0 0 0 2 2 0 0 6 1 1 1 1 0 0 0 0 0 0 0 0 1 3
0 0 0 0 0 0 0 0 0 0 0 0 0 0 0 0 0 0 0 0 0 0 0 0 0 1 0 2 11 5 2 3 1 0 0 0 1 2 1 0 0 1 1
0 0 0 0 0 0 0 0 0 0 0 0 0 0 0 0 0 0 0 0 0 0 0 2 2 0 2 7 2 4 3 1 4 0 1 2 3 6 5 4 2 0 0
CIN
-0 -0 -0 -0 -0 -0 -0 -0 -0 -0 -0 -0 -0 -0 -0 -0 -0 -0 -0 -0 -0 -0 -0 -0 -0 -0 -0 -0 -0 -0 -0 -51 -0 -0 -0 -0 -0 -0 -0 -0 -0 -0 -0
-0 -0 -0 -0 -0 -0 -0 -0 -0 -0 -0 -0 -0 -0 -0 -0 -0 -0 -0 -0 -0 -0 -0 -0 -0 -0 -0 -0 -0 -0 -0 -0 -0 -31 -5 -0 -0 -0 -0 -0 -0 -0 -0
-0 -0 -0 -0 -0 -0 -0 -0 -0 -0 -0 -0 -0 -0 -0 -0 -0 -0 -0 -0 -0 -0 -0 -0 -0 -0 -0 -0 -0 -0 -0 -0 -0 -0 -0 -4 -1 -4 -102 -0 -0 -0 -0
-0 -0 -0 -0 -0 -0 -0 -0 -0 -0 -0 -0 -0 -0 -0 -0 -0 -0 -0 -0 -0 -0 -0 -0 -0 -0 -0 -0 -0 -0 -0 -0 -0 -0 -0 -0 -0 -35 -1 -0 -8 -0 -0
-0 -0 -0 -0 -0 -0 -0 -0 -0 -0 -0 -0 -0 -0 -0 -0 -0 -0 -0 -0 -0 -0 -0 -0 -0 -0 -0 -0 -0 -0 -0 -0 -0 -0 -0 -0 -0 -0 -0 -0 -0 -0 -0
-0 -0 -0 -0 -0 -0 -0 -0 -0 -0 -0 -0 -0 -0 -0 -0 -0 -0 -0 -0 -0 -0 -0 -0 -0 -0 -0 -0 -0 -0 -0 -0 -0 -0 -0 -0 -0 -0 -0 -0 -0 -0 -0
-0 -0 -0 -0 -0 -0 -0 -0 -0 -0 -0 -0 -0 -0 -0 -0 -0 -0 -0 -0 -0 -0 -0 -0 -0 -0 -0 -0 -0 -0 -0 -0 -0 -2 -0 -0 -0 -0 -0 -0 -0 -0 -0
-0 -0 -0 -0 -0 -0 -0 -0 -0 -0 -0 -0 -0 -0 -0 -0 -0 -0 -0 -0 -0 -0 -0 -0 -0 -0 -0 -0 -0 -0 -0 -0 -5 -0 -0 -0 -0 -0 -0 -0 -0 -0 -0
-0 -0 -0 -0 -0 -0 -0 -0 -0 -0 -0 -0 -0 -0 -0 -0 -0 -0 -0 -0 -0 -0 -0 -0 -0 -0 -0 -0 -5 -4 -0 -4 -2 -1 -3 -1 -0 -1 -1 -0 -0 -0 -0
-0 -0 -0 -0 -0 -0 -0 -0 -0 -0 -0 -0 -0 -0 -0 -0 -0 -0 -0 -0 -0 -0 -0 -0 -0 -0 -0 -0 -0 -0 -3 -1 -0 -2 -3 -0 -3 -2 -2 -1 -0 -0 -0
-0 -0 -0 -0 -0 -0 -0 -0 -0 -0 -0 -0 -0 -0 -0 -0 -0 -0 -0 -0 -0 -0 -0 -0 -0 -0 -0 -0 -0 -1 -1 -2 -0 -1 -0 -0 -0 -0 -2 -1 -1 -0 -0
-0 -0 -0 -0 -0 -0 -0 -0 -0 -0 -0 -0 -0 -0 -0 -0 -0 -0 -0 -0 -0 -0 -0 -0 -0 -0 -0 -0 -2 -0 -1 -1 -2 -1 -0 -0 -0 -0 -0 -1 -1 -0 -1
-0 -0 -0 -0 -0 -0 -0 -0 -0 -0 -0 -0 -0 -0 -0 -0 -0 -0 -0 -0 -0 -0 -0 -0 -0 -0 -0 -0 -1 -0 -0 -1 -1 -1 -0 -0 -0 -0 -1 -0 -0 -0 -0
-0 -0 -0 -0 -0 -0 -0 -0 -0 -0 -0 -0 -0 -0 -0 -0 -0 -0 -0 -0 -0 -0 -0 -0 -0 -0 -0 -1 -0 -0 -1 -1 -1 -1 -0 -0 -0 -0 -0 -0 -0 -0 -0
-0 -0 -0 -0 -0 -0 -0 -0 -0 -0 -0 -0 -0 -0 -0 -0 -0 -0 -0 -0 -0 -0 -0 -0 -0 -0 -0 -0 -3 -0 -0 -1 -0 -0 -1 -0 -0 -0 -1 -0 -0 -0 -0
-0 -0 -0 -0 -0 -0 -0 -0 -0 -0 -0 -0 -0 -0 -0 -0 -0 -0 -0 -0 -0 -0 -0 -1 -0 -0 -1 -10 -3 -1 -0 -0 -0 -0 -0 -0 -0 -0 -0 -0 -2 -7 -0
-0 -0 -0 -0 -0 -0 -0 -0 -0 -0 -0 -0 -0 -0 -0 -0 -0 -0 -0 -0 -0 -0 -0 -0 -0 -0 -1 -4 -1 -1 -0 -0 -0 -0 -0 -0 -0 -0 -0 -0 -0 -0 -1
-0 -0 -0 -0 -0 -0 -0 -0 -0 -0 -0 -0 -0 -0 -0 -0 -0 -0 -0 -0 -0 -0 -0 -0 -0 -0 -0 -2 -0 -2 -0 -0 -0 -0 -0 -0 -0 -0 -0 -0 -0 -0 -0
-0 -0 -0 -0 -0 -0 -0 -0 -0 -0 -0 -0 -0 -0 -0 -0 -0 -0 -0 -0 -0 -0 -0 -0 -0 -0 -0 -0 -0 -0 -0 -0 -0 -0 -0 -0 -0 -0 -0 -0 -0 -0 -0
-0 -0 -0 -0 -0 -0 -0 -0 -0 -0 -0 -0 -0 -0 -0 -0 -0 -0 -0 -0 -0 -0 -0 -0 -0 -0 -0 -0 -0 -0 -0 -0 -0 -0 -0 -1 -0 -0 -0 -0 -0 -0 -0
-0 -0 -0 -0 -0 -0 -0 -0 -0 -0 -0 -0 -0 -0 -0 -0 -0 -0 -0 -0 -0 -0 -0 -0 -0 -0 -0 -0 -0 -0 -0 -0 -0 -0 -0 -1 -0 -0 -0 -0 -0 -0 -0
-0 -0 -0 -0 -0 -0 -0 -0 -0 -0 -0 -0 -0 -0 -0 -0 -0 -0 -0 -0 -0 -0 -0 -0 -0 -0 -0 -0 -0 -0 -0 -0 -0 -0 -0 -1 -0 -0 -0 -0 -1 -0 -0
-0 -0 -0 -0 -0 -0 -0 -0 -0 -0 -0 -0 -0 -0 -0 -0 -0 -0 -0 -0 -0 -0 -0 -0 -0 -1 -0 -1 -0 -0 -0 -0 -0 -0 -0 -0 -0 -0 -0 -0 -3 -2 -1
-0 -0 -0 -0 -0 -0 -0 -0 -0 -0 -0 -0 -0 -0 -0 -0 -0 -0 -0 -0 -0 -0 -0 -0 -0 -0 -0 -0 -1 -1 -2 -1 -0 -0 -0 -0 -0 -0 -0 -0 -0 -1 -1
-0 -0 -0 -0 -0 -0 -0 -0 -0 -0 -0 -0 -0 -0 -0 -0 -0 -0 -0 -0 -0 -0 -0 -0 -0 -0 -0 -0 -0 -0 -0 -1 -1 -1 -1 -0 -0 -0 -0 -0 -0 -1 -1
-0 -0 -0 -0 -0 -0 -0 -0 -0 -0 -0 -0 -0 -0 -0 -0 -0 -0 -0 -0 -0 -0 -0 -0 -0 -0 -0 -0 -0 -0 -0 -0 -0 -0 -0 -0 -0 -0 -0 -0 -0 -0 -0
Wind_Speed
7 8 9 9 11 12 14 16 15 15 8 5 2 5 8 9 9 9 14 14 13 14 12 9 10 11 10 10 10 9 10 7 3 4 6 8 9 10 10 10 9 12 13
7 9 9 9 9 8 11 12 13 15 10 7 5 4 3 6 7 8 10 13 13 14 13 11 10 12 10 11 11 12 7 5 11 6 8 8 8 6 9 9 9 13 11
10 8 9 7 7 8 8 9 8 10 9 9 5 3 4 4 8 9 8 9 11 11 12 12 11 11 9 9 11 11 11 8 7 10 6 5 7 12 7 6 7 11 10
7 7 8 7 7 6 6 6 7 9 9 8 11 13 9 8 5 4 5 6 8 9 11 10 9 8 7 10 9 9 10 8 9 9 8 10 11 7 11 8 9 8 11
9 8 8 7 6 6 7 6 7 8 8 9 9 8 8 3 2 3 6 6 6 6 8 8 8 8 7 8 10 11 10 8 5 7 10 11 11 7 8 11 10 12 11
8 8 6 6 6 5 6 6 7 7 7 7 7 8 7 6 6 6 6 6 4 5 7 8 7 6 7 8 8 9 10 9 9 6 7 9 7 12 9 11 13 15 11
12 11 9 7 7 7 5 5 7 6 6 7 7 7 7 7 6 6 5 7 6 6 8 6 7 6 6 6 7 7 10 10 10 8 9 7 8 8 10 10 12 12 14
11 11 9 8 7 7 6 6 6 5 5 6 6 5 6 4 3 4 3 4 4 4 6 7 5 6 6 6 5 4 7 10 7 13 12 9 8 8 9 10 13 14 12
11 11 8 8 7 7 7 7 7 6 6 5 5 6 6 6 5 6 5 4 5 7 8 7 7 7 8 8 6 4 8 8 9 10 12 10 9 8 9 9 10 12 15
11 9 8 8 6 7 6 6 6 7 5 6 5 4 5 6 6 6 7 6 6 7 8 9 9 9 10 10 9 8 9 12 10 10 13 13 10 11 9 9 10 11 14
14 12 10 7 8 7 6 6 6 7 6 6 5 6 6 6 6 5 6 6 6 7 9 9 10 10 10 10 9 12 11 11 11 11 12 16 17 11 10 10 11 12 11
15 12 12 10 8 8 7 7 6 7 6 6 6 6 6 6 6 6 6 6 8 7 9 9 10 10 10 9 11 14 13 14 13 14 14 15 12 15 13 10 14 13 14
14 12 11 11 10 7 7 6 6 6 6 6 6 6 6 6 6 6 6 7 8 8 9 9 10 11 11 10 13 13 13 13 14 14 15 15 15 13 11 15 13 12 11
18 15 11 10 9 8 7 6 6 6 6 6 6 6 6 6 6 6 6 7 7 8 9 9 9 10 11 9 14 14 14 14 14 14 14 15 15 15 16 14 14 12 11
18 16 14 11 8 8 7 6 6 6 6 6 6 5 6 6 6 6 6 7 8 9 9 10 10 11 11 11 15 15 15 16 16 16 15 14 19 25 19 12 15 14 12
19 17 15 13 11 10 8 7 7 7 6 6 6 6 6 6 6 6 6 7 8 9 8 12 13 13 9 17 22 19 15 15 15 15 18 18 20 18 25 23 19 15 14
20 18 17 14 12 10 9 8 8 6 6 6 6 6 6 5 5 5 6 8 7 7 7 9 9 12 11 18 21 24 13 15 15 17 16 16 13 19 17 21 23 20 18
20 18 14 12 11 8 7 8 8 7 7 6 6 6 5 5 5 5 6 6 5 6 5 9 8 10 10 19 24 25 16 13 15 16 17 17 18 17 20 20 18 16 16
20 17 13 14 11 11 9 11 8 7 7 6 6 5 5 5 5 5 6 5 5 6 5 6 8 11 10 20 22 21 14 15 16 15 15 17 17 25 30 20 19 18 17
18 16 15 13 12 9 11 11 9 7 7 6 6 5 5 5 5 4 5 4 4 5 6 7 7 14 14 20 24 21 11 14 13 15 15 20 20 28 29 20 17 16 17
19 16 16 15 13 11 12 11 8 7 7 7 6 5 5 4 4 3 3 4 5 5 5 8 7 9 13 14 22 25 13 13 15 12 13 12 26 29 28 26 14 19 20
18 17 15 12 10 11 12 11 8 7 7 8 6 5 5 3 3 4 4 4 5 5 6 8 7 7 12 17 18 23 24 22 13 13 13 14 28 28 26 20 27 26 17
18 15 15 13 10 10 12 11 8 7 7 7 6 5 5 4 3 3 4 3 4 4 5 8 9 9 10 10 19 19 24 22 13 12 19 25 25 25 19 25 26 18 12
17 14 16 14 11 9 9 11 9 7 7 7 6 5 4 3 3 3 2 3 3 3 4 5 8 8 9 9 10 11 11 15 15 16 13 14 17 16 15 15 15 13 13
15 16 15 14 13 10 10 9 9 8 7 6 5 5 3 2 2 3 1 2 3 3 4 4 3 7 10 11 16 16 13 12 14 15 11 12 14 14 15 15 15 14 14
16 14 14 14 12 12 11 9 8 8 8 6 4 3 3 1 2 2 3 6 6 8 9 11 9 6 13 19 21 22 23 22 22 10 10 12 13 14 14 15 15 14 17
Wind_Direction
90 72 61 50 50 44 44 41 41 33 13 40 30 56 48 50 41 35 30 34 26 22 30 12 9 14 3 7 2 338 349 312 275 277 269 259 242 244 245 248 248 250 254
95 83 75 68 53 48 47 46 44 43 31 37 28 28 21 46 39 31 29 26 27 24 22 14 11 13 12 6 6 9 342 325 349 308 290 292 282 245 238 244 246 246 249
123 109 90 82 77 62 55 57 55 53 49 50 52 54 52 52 36 29 26 20 24 24 20 15 14 9 6 358 2 0 348 346 331 341 295 303 293 308 295 256 249 256 255
125 120 109 89 89 82 75 75 63 59 54 49 58 58 59 53 20 5 11 16 19 21 22 17 12 8 2 0 356 351 351 356 350 341 356 323 313 315 306 283 294 275 266
145 130 117 110 98 87 72 67 64 60 53 54 60 62 61 53 10 6 21 18 13 12 16 14 5 9 5 353 352 349 349 335 343 344 336 332 316 326 326 313 331 319 304
150 135 125 122 107 92 76 66 72 56 56 59 58 66 64 46 38 24 24 15 9 6 4 3 359 352 355 357 352 345 338 344 327 345 341 330 337 331 331 313 314 304 308
158 151 146 140 131 125 115 95 80 65 60 63 54 51 50 42 35 18 7 5 3 4 354 349 344 341 336 335 343 342 340 338 328 340 340 333 333 317 313 313 313 306 311
163 157 153 147 137 133 129 107 93 86 73 64 57 49 46 43 33 20 354 352 355 330 341 341 324 318 315 316 325 318 333 336 319 343 338 327 315 327 322 314 305 304 300
165 158 153 150 144 141 145 132 108 88 77 79 66 47 38 39 28 16 12 359 350 355 354 346 338 339 343 340 330 318 334 328 339 336 333 317 323 314 306 292 290 297 299
160 154 152 155 155 143 134 125 104 94 89 74 73 64 49 38 27 18 11 0 346 346 351 354 351 354 357 351 350 347 334 350 343 330 320 321 316 310 305 304 293 287 282
166 161 162 156 145 138 142 138 118 110 98 86 93 64 39 31 23 16 358 357 344 353 1 357 357 356 353 352 352 359 347 339 326 317 320 317 315 309 310 304 301 300 301
163 160 159 148 147 149 148 148 142 114 111 108 84 67 47 33 22 9 4 359 2 0 356 356 357 353 347 342 358 351 343 337 329 321 316 312 315 311 306 309 310 307 300
154 153 150 157 156 157 158 149 130 112 110 97 85 60 42 34 23 18 12 9 1 357 354 356 354 351 345 338 1 350 342 334 325 320 316 310 309 305 305 308 303 295 301
160 160 155 160 162 160 149 142 124 120 116 101 84 68 48 40 32 20 16 6 356 358 355 355 350 349 341 347 358 347 339 330 322 318 317 313 310 311 308 303 301 301 310
163 162 161 166 160 145 140 135 125 127 124 103 87 75 58 51 36 19 10 0 359 356 351 351 358 0 347 10 355 347 340 329 325 325 319 316 315 309 299 298 302 300 308
167 163 162 163 156 151 152 144 138 133 120 105 90 74 61 55 28 10 3 3 357 355 351 9 3 1 349 2 351 347 336 330 327 324 327 327 320 319 314 304 293 289 296
165 163 167 164 157 157 154 146 144 136 114 103 88 73 73 51 27 1 2 357 350 339 355 356 1 356 352 354 350 345 334 335 331 329 324 321 321 319 316 315 308 299 283
163 163 161 152 151 151 140 136 136 124 114 101 90 82 75 53 22 5 357 344 339 332 354 352 354 353 346 350 355 346 343 337 332 329 323 321 323 323 322 316 309 304 294
163 159 153 147 149 151 146 133 124 120 114 109 105 99 81 63 24 9 349 334 338 336 348 339 351 350 345 348 351 350 343 336 334 332 329 330 324 325 327 322 314 308 300
151 147 147 144 147 151 142 130 132 127 125 126 122 105 97 77 39 8 346 323 330 331 331 346 8 355 350 351 353 353 342 335 335 333 331 329 329 330 331 327 324 317 316
148 142 147 154 155 150 138 130 135 138 142 126 119 98 86 88 52 14 351 343 337 327 338 345 4 351 355 349 351 353 345 339 337 332 332 330 335 339 335 335 328 321 317
142 148 149 152 152 145 134 137 143 150 130 131 121 114 99 76 55 37 0 347 352 347 353 350 353 348 354 352 347 348 349 342 335 331 326 324 333 336 336 338 334 333 329
150 151 149 146 149 147 143 142 155 142 135 134 132 124 103 80 55 41 12 357 358 352 352 5 355 348 348 349 344 344 346 344 339 331 324 328 333 335 337 339 338 340 341
150 149 146 149 150 148 144 143 149 143 136 139 137 129 109 89 44 30 19 6 359 358 1 1 358 346 345 346 342 344 337 342 345 338 331 331 332 337 336 340 345 343 343
150 152 152 152 152 144 140 144 145 141 132 135 141 131 122 110 47 19 356 8 351 11 7 344 341 349 346 344 346 348 346 340 350 343 344 346 349 346 345 345 346 344 344
151 151 151 146 147 145 146 146 147 139 135 138 139 145 142 129 79 55 1 358 14 22 19 12 4 353 347 350 356 357 350 352 346 351 354 351 348 347 343 344 342 344 344